This is the latest recevied weather packets stored in our database for station/object K5GTX. If no packets are shown the sender has not sent any weather packets the latest 10 day(s).
| Time | Temp. | Humidity | Pressure | Rain* | Wind** | Luminosity | Snow |
|---|---|---|---|---|---|---|---|
| 1777945957 | 23.89° C | 99% | 1012.3 hPa | 0 mm | - | 0 W/m² | - |
| 1777945655 | 24.44° C | 99% | 1012.5 hPa | 0 mm | - | 0 W/m² | - |
| 1777945352 | 24.44° C | 99% | 1012.5 hPa | 0 mm | - | 0 W/m² | - |
| 1777945048 | 24.44° C | 99% | 1012.3 hPa | 0 mm | - | 0 W/m² | - |
| 1777944745 | 24.44° C | 99% | 1012.3 hPa | 0 mm | - | 0 W/m² | - |
| 1777944444 | 24.44° C | 99% | 1012.3 hPa | 0 mm | - | 0 W/m² | - |
| 1777944141 | 24.44° C | 99% | 1012.2 hPa | 0 mm | - | 0 W/m² | - |
| 1777943836 | 25° C | 99% | 1012.2 hPa | 0 mm | - | 0 W/m² | - |
| 1777943534 | 25° C | 99% | 1012.3 hPa | 0 mm | - | 0 W/m² | - |
| 1777943229 | 25° C | 99% | 1012.3 hPa | 0 mm | - | 0 W/m² | - |
| 1777942926 | 25° C | 99% | 1012.2 hPa | 0 mm | - | 1 W/m² | - |
| 1777942622 | 25° C | 99% | 1012 hPa | 0 mm | - | 2 W/m² | - |
| 1777942319 | 25° C | 99% | 1012.1 hPa | 0 mm | - | 7 W/m² | - |
| 1777942016 | 25° C | 99% | 1012.2 hPa | 0 mm | - | 10 W/m² | - |
| 1777941713 | 25° C | 99% | 1012 hPa | 0 mm | - | 16 W/m² | - |
| 1777941410 | 25° C | 99% | 1012.4 hPa | 0 mm | - | 23 W/m² | - |
| 1777941108 | 25° C | 99% | 1012.4 hPa | 0 mm | - | 27 W/m² | - |
| 1777940804 | 25.56° C | 99% | 1012.2 hPa | 0 mm | - | 32 W/m² | - |
| 1777940502 | 25.56° C | 99% | 1012.4 hPa | 0 mm | - | 34 W/m² | - |
| 1777940198 | 25.56° C | 99% | 1012.4 hPa | 0 mm | - | 43 W/m² | - |
| 1777939896 | 25.56° C | 99% | 1012.5 hPa | 0 mm | - | 59 W/m² | - |
| 1777939593 | 26.11° C | 99% | 1012.5 hPa | 0 mm | - | 83 W/m² | - |
| 1777939291 | 26.11° C | 99% | 1012.4 hPa | 0 mm | - | 89 W/m² | - |
| 1777938987 | 26.11° C | 99% | 1012.5 hPa | 0 mm | - | 117 W/m² | - |
| 1777938684 | 26.11° C | 99% | 1012.4 hPa | 0 mm | - | 110 W/m² | - |
* Rain latest hour (hover to see other rain measurements)
** Current wind speed in m/s (hover to see current wind gust speed)